Regional Weather Roundup
Issued by NWS

Home | Current Version | Previous Version | Graphics & Text | Print | Product List | Glossary On
Versions: 1 2 3 4 5 6 7 8 9 10 11 12 13 14 15 16 17 18 19 20 21 22 23 24 25 26 27 28 29 30 31 32 33 34 35 36 37 38 39 40 41 42 43 44 45 46 47 48 49 50
559
ASUS45 KBOU 051707
RWRCO

WEATHER ROUNDUP FOR COLORADO
NATIONAL WEATHER SERVICE DENVER/BOULDER CO
1000 AM MST FRI FEB 05 2016

NOTE: "FAIR" INDICATES FEW OR NO CLOUDS BELOW 12000 FEET WITH NO
SIGNIFICANT WEATHER AND/OR OBSTRUCTIONS TO VISIBILITY.

COZ001>005-013-030-031-051800-
...NORTHWEST COLORADO...

CITY           SKY/WX    TMP DP  RH WIND       PRES   REMARKS
CRAIG          CLOUDY    13  10  88 SE3       30.48R
HAYDEN         CLOUDY    16  10  79 CALM      30.45R
MEEKER         CLOUDY    17  13  84 CALM      30.47R
MOUNT WERNER   NOT AVBL
STEAMBOAT SPGS CLOUDY    10   6  82 CALM      30.44R
WALDEN         CLOUDY    10   1  67 SE5       30.35R WCI   2
$$

COZ006>008-011-051800-
...WEST CENTRAL VALLEYS...

CITY           SKY/WX    TMP DP  RH WIND       PRES   REMARKS
GRAND JUNCTION CLOUDY    18  15  88 SE3       30.58R
MONTROSE       SUNNY     15   8  73 CALM      30.56R
EAGLE          SUNNY     19   9  63 CALM      30.51R
RIFLE          CLOUDY    12   9  87 SE3       30.56R
DELTA          SUNNY     19  13  77 NE5       30.58R WCI  12
NUCLA          LGT SNOW  14  10  85 CALM      30.56R VSB 3/4
$$

COZ017>023-064>068-051800-
...SOUTHWEST COLORADO...

CITY           SKY/WX    TMP DP  RH WIND       PRES   REMARKS
DURANGO        SUNNY      9   2  73 E9        30.39R WCI  -4
CORTEZ         SUNNY     22  11  62 W3        30.45S
PAGOSA SPRINGS SUNNY     12  10  92 CALM      30.35R
TELLURIDE      CLOUDY    16   6  64 W3        30.37R
WOLF CREEK PAS SUNNY      5  -6  61 NE18      30.24R WCI -15
$$

COZ009-010-012-014-032>034-037-058>063-051800-
...CENTRAL COLORADO...

CITY           SKY/WX    TMP DP  RH WIND       PRES   REMARKS
ASPEN          CLOUDY    12   6  77 N7        30.40R WCI   1
BUENA VISTA    CLOUDY    20   2  46 NW20G25   30.30R WCI   4
COPPER MTN     CLOUDY     5  -4  66 NW6       30.20R WCI  -6
BERTHOUD PASS  CLOUDY    -2 -13  60 N20G29    30.16R WCI -25
COTTONWOOD PAS CLOUDY    18   1  49 CALM      30.25R
GUNNISON       CLOUDY   -15 N/A N/A SE3       30.47R
KREMMLING      LGT SNOW   0  -6  78 CALM      30.44R
LEADVILLE      CLOUDY    10  -2  58 N8        30.26R WCI  -2
MONARCH PASS   CLOUDY     1  -4  78 MISG      30.29R
SALIDA         CLOUDY    24   2  38 NW14G23   30.40R WCI  12
SUNLIGHT       LGT SNOW N/A N/A N/A CALM        N/A
WILKERSON PASS CLOUDY    10  -4  52 NE5       30.21R WCI   2
$$

COZ069>075-051800-
...SAN LUIS VALLEY/SANGRE DE CRISTO MOUNTAINS...

CITY           SKY/WX    TMP DP  RH WIND       PRES   REMARKS
ALAMOSA        SUNNY     11   0  61 SW5       30.32R WCI   3
LA VETA PASS   CLOUDY    12   3  67 MISG      30.21R
SAGUACHE       SUNNY     19   5  53 NW22G28   30.31S WCI   3
$$

COZ035-036-038>040-051800-
...NORTHERN COLORADO FRONT RANGE...

CITY           SKY/WX    TMP DP  RH WIND       PRES   REMARKS
DENVER INTL AP MOSUNNY   30  10  43 W7        30.31R WCI  23
DMNS CITY PARK   N/A     35   3  25 N6G14     30.32S WCI  30
AURORA         MOSUNNY   29   9  43 S2        30.32R
FRONT RANGE AP PTSUNNY   27  12  54 MISG      30.31R
ERIE MUNI ARPT SUNNY     32  11  42 CALM      30.32S
BOULDER MUN AP SUNNY     36   3  25 CALM      30.30S
CENTENNIAL     PTSUNNY   31   5  33 N3        30.30S
BROOMFIELD     MOSUNNY   32   9  37 W9        30.31R WCI  24
FORT COLLINS   SUNNY     30  12  47 N8        30.32S WCI  23
LONGMONT       SUNNY     31   9  39 CALM      30.33R
$$

COZ041-046-047-076>085-087-088-051800-
...PIKES PEAK/PALMER DIVIDE AND SOUTHERN FOOTHILLS...

CITY           SKY/WX    TMP DP  RH WIND       PRES   REMARKS
COLO. SPRINGS  MOSUNNY   28   7  41 N12       30.30R WCI  18
A. F. ACADEMY  SUNNY     25   6  43 N17       30.27R WCI  12
SCHRIEVER AFB  FAIR      26   9  48 N12       30.31R WCI  15
ELLICOTT       NOT AVBL
FALCON         SUNNY     28   7  42 N9        30.29R WCI  19
FORT CARSON    SUNNY     25  12  56 S2        30.30R
LIMON          CLOUDY    26  14  60 NW15      30.31R WCI  14
MONUMENT HILL  MOSUNNY   21   5  49 NW7       30.30R WCI  13
TRINIDAD       CLOUDY    27  20  75 NW14      30.31R WCI  16
$$

COZ042>045-048>051-090-091-051800-
...NORTHEAST COLORADO...

CITY           SKY/WX    TMP DP  RH WIND       PRES   REMARKS
GREELEY ARPT   SUNNY     19  12  73 CALM      30.34R
AKRON          CLOUDY    24  15  68 W14       30.30R WCI  12
BURLINGTON     SUNNY     28  17  63 NW16      30.30R WCI  16
WRAY           SUNNY     31  20  62 W14       30.30S WCI  21
STERLING       CLOUDY    28  18  64 NW15      30.30S WCI  17
HOLYOKE        SUNNY     34  19  55 NW17G23   30.29R WCI  23
FORT MORGAN    SUNNY     22  11  64 W6        30.33R WCI  14
$$

COZ086-089-092>099-051800-
...SOUTHEAST COLORADO...

CITY           SKY/WX    TMP DP  RH WIND       PRES   REMARKS
PUEBLO         SUNNY     33  23  66 CALM      30.34R
LA JUNTA       CLOUDY    32  26  78 W13       30.33R WCI  22
LAMAR          PTSUNNY   38  25  59 N9        30.30S
SPRINGFIELD      N/A     32  26  78 N28G35    30.27R WCI  18
$$




USA.gov is the U.S. government's official web portal to all federal, state and local government web resources and services.